Flag for Spain Weather past 2 weeks in Zaragoza, Spain

Now
46 °F

Clear.


Feels Like: 46 °F
Forecast: 31 / 67 °F
Wind: 2 mph from South

Location: Zaragoza / Aeropuerto

Current Time: Mar 6, 2015 at 9:20:27 PM

Latest Report: Mar 6, 2015 at 9:00 PM


Visibility: 10 mi

Pressure: 30.42 "Hg

Humidity: 50%

Dew point: 28 °F

Location of ZaragozaLocation

Historic Weather in Zaragoza — Graph

°F

Zaragoza temperature yesterday

Maximum temperature yesterday: 55 °F (at 2:30 PM)
Minimum temperature yesterday: 41 °F (at 12:00 AM)
Average temperature yesterday: 46 °F

Past Weeks' High & Low Weather Summary

 TemperatureHumidityPressure
High70 °F (Mar 2, 2:00 PM)100% (Feb 20, 8:30 AM)30.57 "Hg (Feb 20, 8:30 AM)
Low32 °F (Feb 20, 6:30 AM)25% (Mar 6, 1:30 PM)29.74 "Hg (Feb 21, 6:30 AM)
Average50 °F67%30.17 "Hg
* Reported Feb 19 8:00 PM — Mar 6 8:00 PM, Zaragoza, Weather by CustomWeather, © 2015

Note: Actual official high and low records may vary slightly from our data, if they occured in-between our weather recording intervals... More about our weather records

Advertising

Zaragoza weather history for previous 24 hours

 ConditionsComfort  
Time TempWeatherWind HumidityBarometerVisibility
8:00 PM
Fri, Mar 6
50 °FClear.1 mph43%30.39 "Hg10 mi
7:30 PM54 °FClear.1 mph41%30.39 "Hg10 mi
7:00 PM57 °FClear.2 mph31%30.39 "Hg10 mi
6:30 PM63 °FSunny.No wind25%30.39 "Hg10 mi
6:00 PM63 °FSunny.No wind25%30.39 "Hg10 mi
5:30 PM63 °FSunny.No wind25%30.39 "Hg10 mi
5:00 PM63 °FSunny.1 mph25%30.39 "Hg10 mi
4:30 PM61 °FSunny.1 mph27%30.39 "Hg10 mi
4:00 PM61 °FSunny.2 mph25%30.39 "Hg10 mi
3:30 PM61 °FSunny.3 mph25%30.39 "Hg10 mi
3:00 PM61 °FPassing clouds.5 mph25%30.42 "HgN/A
2:30 PM59 °FPassing clouds.7 mph25%30.42 "HgN/A
2:00 PM57 °FSunny.3 mph27%30.42 "Hg10 mi
1:30 PM57 °FPassing clouds.5 mph25%30.45 "HgN/A
1:00 PM55 °FPassing clouds.5 mph28%30.45 "HgN/A
12:30 PM54 °FPassing clouds.5 mph30%30.48 "HgN/A
12:00 PM52 °FPassing clouds.5 mph35%30.48 "HgN/A
11:30 AM50 °FPassing clouds.5 mph40%30.48 "HgN/A
11:00 AM48 °FPassing clouds.3 mph43%30.48 "HgN/A
10:30 AM48 °FPassing clouds.8 mph43%30.51 "HgN/A
10:00 AM48 °FPassing clouds.6 mph43%30.48 "HgN/A
9:30 AM46 °FSunny.2 mph43%30.48 "Hg10 mi
9:00 AM45 °FSunny.2 mph42%30.48 "Hg10 mi
8:30 AM39 °FPassing clouds.6 mph48%30.45 "HgN/A
8:00 AM37 °FSunny.5 mph56%30.45 "Hg10 mi
7:30 AM37 °FClear.9 mph52%30.45 "Hg10 mi
7:00 AM41 °FClear.13 mph49%30.45 "Hg10 mi
6:30 AM41 °FClear.10 mph49%30.45 "Hg10 mi
6:00 AM41 °FClear.12 mph49%30.45 "Hg10 mi
5:30 AM39 °FClear.10 mph56%30.42 "Hg10 mi
5:00 AM39 °FClear.9 mph56%30.45 "Hg10 mi
4:30 AM41 °FClear.9 mph53%30.42 "Hg10 mi
4:00 AM41 °FClear.13 mph57%30.42 "Hg10 mi
3:30 AM41 °FClear.13 mph53%30.45 "Hg10 mi
3:00 AM43 °FClear.14 mph53%30.45 "Hg10 mi
2:30 AM43 °FClear.14 mph53%30.45 "Hg10 mi
2:00 AM43 °FClear.16 mph53%30.45 "Hg10 mi
1:30 AM43 °FClear.17 mph53%30.45 "Hg10 mi
1:00 AM43 °FClear.20 mph53%30.45 "Hg10 mi
12:30 AM45 °FClear.21 mph49%30.45 "Hg10 mi
12:00 AM43 °FClear.20 mph53%30.45 "Hg10 mi
11:30 PM
Thu, Mar 5
45 °FClear.20 mph49%30.45 "Hg10 mi
11:00 PM45 °FClear.24 mph49%30.45 "Hg10 mi
10:30 PM45 °FClear.22 mph49%30.45 "Hg10 mi
10:00 PM45 °FClear.20 mph46%30.45 "Hg10 mi
9:30 PM46 °FClear.22 mph40%30.42 "Hg10 mi
9:00 PM46 °FClear.23 mph37%30.42 "Hg10 mi
Weather by CustomWeather, © 2015

See weather overviewHow to use our weather pages